1487620800.37,7198,12.63,72842.5,-5.91,-32.19,-32.91,0,*6A
1487620801.58,7199,12.63,72852.0,-5.91,-32.01,-32.91,0,*62
1487620802.8,7200,12.63,72850.0,-5.91,-32.23,-33.09,0,*61
1487620804.03,7201,12.63,72854.3,-5.91,-32.23,-32.97,0,*66
1487620805.28,7202,12.69,72852.5,-5.89,-32.39,-33.09,0,*61
1487620806.48,7203,12.63,72858.0,-5.87,-32.39,-33.21,0,*64
1487620807.71,7204,12.63,72852.0,-5.87,-32.39,-33.09,0,*69
1487620808.96,7205,12.63,72854.0,-5.89,-32.19,-32.91,0,*64
1487620810.2,7206,12.63,72842.0,-5.87,-32.13,-32.85,0,*66
1487620811.42,7207,12.63,72840.5,-5.87,-31.95,-32.57,0,*65
1487620812.69,7208,12.63,72840.8,-5.85,-32.19,-32.97,0,*63
1487620813.91,7209,12.63,72828.3,-5.85,-32.35,-33.21,0,*60
1487620815.17,7210,12.63,72842.5,-5.85,-32.51,-33.43,0,*6E
1487620816.42,7211,12.63,72842.8,-5.85,-32.51,-33.43,0,*6F
1487620817.64,7212,12.63,72828.8,-5.83,-32.45,-33.15,0,*6C
1487620818.92,7213,12.63,72818.5,-5.85,-32.45,-33.43,0,*68
1487620820.17,7214,12.63,72830.5,-5.85,-32.63,-33.55,0,*6C
1487620821.44,7215,12.63,72832.3,-5.85,-32.85,-33.89,0,*64
1487620822.71,7216,12.63,72842.3,-5.85,-32.97,-33.77,0,*65
1487620823.99,7217,12.63,72844.3,-5.85,-32.79,-33.77,0,*64
1487620825.22,7218,12.63,72852.0,-5.87,-32.75,-33.67,0,*64
1487620826.42,7219,12.63,72848.8,-5.87,-32.91,-33.95,0,*62
1487620827.67,7220,12.63,72840.3,-5.89,-32.85,-33.95,0,*63
1487620828.89,7221,12.63,72838.0,-5.89,-33.03,-33.95,0,*6D
1487620830.12,7222,12.63,72830.3,-5.89,-33.03,-33.83,0,*69
1487620831.37,7223,12.63,72822.0,-5.87,-32.85,-33.77,0,*62
1487620832.62,7224,12.63,72824.3,-5.89,-32.57,-33.61,0,*63
1487620833.85,7225,12.63,72820.5,-5.87,-32.69,-33.61,0,*61
1487620835.1,7226,12.63,72828.0,-5.89,-32.51,-33.49,0,*6D
1487620836.33,7227,12.63,72832.3,-5.89,-32.57,-33.67,0,*66
1487620837.58,7228,12.63,72838.8,-5.89,-32.39,-33.61,0,*67
1487620838.81,7229,12.63,72848.0,-5.89,-32.13,-32.91,0,*60
1487620840.09,7230,12.63,72844.3,-5.89,-32.19,-32.75,0,*68
1487620841.32,7231,12.63,72840.0,-5.87,-31.85,-32.91,0,*6B
1487620842.6,7232,12.63,72842.5,-5.89,-31.95,-33.09,0,*67
1487620843.85,7233,12.63,72842.8,-5.87,-32.19,-33.61,0,*61
1487620845.1,7234,12.63,72846.0,-5.89,-32.51,-33.77,0,*63
1487620846.35,7235,12.63,72848.3,-5.89,-32.51,-33.49,0,*6F
1487620847.59,7236,12.63,72846.5,-5.89,-32.57,-33.67,0,*66
1487620848.83,7237,12.63,72854.8,-5.89,-32.51,-33.61,0,*67
1487620850.08,7238,12.63,72852.0,-5.89,-32.57,-33.61,0,*6E
1487620851.31,7239,12.63,72850.0,-5.87,-32.39,-33.49,0,*63
1487620852.57,7240,12.63,72854.3,-5.89,-32.39,-33.43,0,*69
1487620853.82,7241,12.63,72840.5,-5.89,-32.39,-33.43,0,*68
1487620855.07,7242,12.63,72848.5,-5.89,-32.23,-33.27,0,*62
1487620856.33,7243,12.63,72842.5,-5.87,-32.19,-33.09,0,*68
1487620857.53,7244,12.63,72834.5,-5.87,-32.13,-33.03,0,*6F
1487620858.74,7245,12.63,72838.5,-5.87,-32.13,-32.91,0,*64
1487620859.94,7246,12.63,72848.3,-5.87,-32.13,-33.03,0,*6D
1487620861.16,7247,12.63,72846.3,-5.85,-32.13,-33.15,0,*69
1487620862.41,7248,12.63,72840.8,-5.85,-32.29,-33.37,0,*6F
1487620863.66,7249,12.63,72836.5,-5.85,-32.19,-33.03,0,*6A
1487620864.91,7250,12.63,72828.0,-5.83,-32.07,-32.97,0,*67
1487620866.16,7251,12.63,72832.5,-5.83,-31.95,-32.97,0,*6E
1487620867.39,7252,12.63,72848.8,-5.83,-32.13,-32.85,0,*63
1487620868.59,7253,12.63,72846.5,-5.83,-32.13,-33.15,0,*6A
1487620869.81,7254,12.63,72858.0,-5.83,-32.29,-33.37,0,*64
1487620871.03,7255,12.63,72856.5,-5.83,-32.29,-33.21,0,*62
1487620872.26,7256,12.63,72852.8,-5.83,-32.35,-33.43,0,*68
1487620873.48,7257,12.63,72852.5,-5.83,-32.19,-33.37,0,*64
1487620874.71,7258,12.63,72850.5,-5.83,-32.51,-33.61,0,*64
1487620875.96,7259,12.63,72848.8,-5.83,-32.45,-33.43,0,*60
1487620877.18,7260,12.63,72844.0,-5.83,-32.45,-33.55,0,*6D
1487620878.38,7261,12.63,72848.8,-5.83,-32.51,-33.55,0,*69
1487620879.61,7262,12.63,72830.5,-5.83,-32.69,-33.73,0,*65
1487620880.86,7263,12.63,72828.0,-5.83,-32.79,-33.73,0,*65
1487620882.09,7264,12.63,72826.8,-5.83,-32.63,-33.37,0,*69
1487620883.3,7265,12.63,72828.5,-5.83,-31.79,-32.69,0,*6A
1487620884.56,7266,12.63,72844.3,-5.83,-31.73,-32.85,0,*61
1487620885.78,7267,12.63,72846.3,-5.83,-31.61,-33.03,0,*6C
1487620887.04,7268,12.63,72844.0,-5.85,-31.91,-32.69,0,*67
1487620888.3,7269,12.63,72850.5,-5.85,-31.95,-32.69,0,*62
1487620889.55,7270,12.63,72850.3,-5.85,-31.95,-32.51,0,*61
1487620890.83,7271,12.63,72846.0,-5.85,-31.73,-32.63,0,*69
1487620892.09,7272,12.63,72846.5,-5.85,-31.57,-32.69,0,*66
1487620893.36,7273,12.63,72846.3,-5.85,-31.61,-32.97,0,*63
1487620894.61,7274,12.63,72846.8,-5.85,-31.91,-33.15,0,*60
1487620895.86,7275,12.63,72850.5,-5.87,-32.19,-33.49,0,*69
1487620897.11,7276,12.63,72850.5,-5.89,-32.23,-33.77,0,*60
1487620898.36,7277,12.63,72846.3,-5.89,-32.39,-33.77,0,*6A
1487620899.56,7278,12.63,72850.3,-5.87,-32.57,-33.83,0,*68
1487620900.79,7279,12.63,72846.0,-5.89,-32.69,-33.83,0,*6A
1487620901.99,7280,12.63,72840.8,-5.87,-32.91,-33.83,0,*65
1487620903.21,7281,12.63,72836.8,-5.89,-32.91,-33.83,0,*6A
1487620904.43,7282,12.63,72832.3,-5.89,-32.91,-33.83,0,*69
1487620905.69,7283,12.63,72834.3,-5.89,-32.75,-33.67,0,*68
1487620906.97,7284,12.63,72852.3,-5.89,-32.75,-33.77,0,*6E
1487620908.2,7285,12.63,72852.5,-5.87,-32.75,-33.95,0,*6D
1487620909.45,7286,12.63,72848.5,-5.89,-32.75,-33.83,0,*67
1487620910.7,7287,12.63,72856.8,-5.89,-32.75,-33.83,0,*66
1487620911.98,7288,12.63,72852.8,-5.89,-32.75,-33.77,0,*62
1487620913.26,7289,12.63,72850.8,-5.89,-32.85,-33.77,0,*6C
1487620914.54,7290,12.63,72850.3,-5.89,-33.09,-34.01,0,*67
1487620915.76,7291,12.63,72852.8,-5.89,-33.03,-33.83,0,*61
1487620917.02,7292,12.63,72844.5,-5.89,-32.57,-33.49,0,*64
1487620918.27,7293,12.63,72844.5,-5.89,-32.39,-33.43,0,*67
1487620919.52,7294,12.63,72846.5,-5.89,-32.51,-33.49,0,*64
1487620920.76,7295,12.69,72850.5,-5.89,-32.69,-33.67,0,*62
1487620922.04,7296,12.63,72844.5,-5.89,-32.75,-33.49,0,*60
1487620923.27,7297,12.63,72836.8,-5.89,-32.57,-32.91,0,*65
1487620924.47,7298,12.63,72834.0,-5.87,-31.67,-31.67,0,*6E
1487620925.71,7299,12.63,72838.0,-5.89,-31.51,-31.67,0,*64
1487620926.95,7300,12.63,72836.0,-5.87,-31.51,-31.45,0,*6B
1487620928.18,7301,12.63,72834.8,-5.87,-31.11,-31.17,0,*69
1487620929.41,7302,12.63,72842.3,-5.89,-31.01,-31.29,0,*68
1487620930.67,7303,12.63,72850.8,-5.89,-30.27,-30.89,0,*67
1487620931.94,7304,12.63,72850.5,-5.89,-30.39,-30.95,0,*62
1487620933.19,7305,12.63,72844.8,-5.91,-30.51,-31.23,0,*68
1487620934.44,7306,12.63,72848.0,-5.91,-30.51,-31.57,0,*68
1487620935.69,7307,12.63,72842.5,-5.91,-30.51,-32.07,0,*6F
1487620936.94,7308,12.63,72834.0,-5.89,-30.61,-32.13,0,*6F
1487620938.17,7309,12.63,72848.0,-5.91,-30.95,-32.39,0,*64
1487620939.4,7310,12.63,72852.3,-5.91,-31.05,-32.63,0,*6B
1487620940.65,7311,12.63,72854.5,-5.93,-31.45,-32.97,0,*67
1487620941.85,7312,12.63,72860.8,-5.91,-31.67,-33.15,0,*6D
1487620943.08,7313,12.63,72862.8,-5.91,-31.91,-33.15,0,*65
1487620944.34,7314,12.63,72860.0,-5.91,-31.91,-33.09,0,*6F
1487620945.6,7315,12.63,72856.8,-5.91,-32.07,-33.27,0,*6E
1487620946.88,7316,12.63,72856.5,-5.93,-32.45,-33.73,0,*68
1487620948.16,7317,12.63,72856.5,-5.93,-32.63,-33.73,0,*6D
1487620949.43,7318,12.63,72850.0,-5.93,-32.63,-33.61,0,*61
1487620950.67,7319,12.63,72852.8,-5.91,-32.75,-33.67,0,*63
1487620951.95,7320,12.63,72848.5,-5.93,-32.85,-33.73,0,*61
1487620953.14,7321,12.63,72854.0,-5.91,-32.91,-33.83,0,*68
1487620954.4,7322,12.63,72856.5,-5.93,-33.03,-33.89,0,*69
1487620955.65,7323,12.63,72870.0,-5.93,-33.03,-33.77,0,*69
1487620956.88,7324,12.63,72866.5,-5.91,-32.45,-33.15,0,*6B
1487620958.11,7325,12.63,72860.0,-5.91,-32.57,-33.49,0,*60
1487620959.34,7326,12.63,72852.3,-5.91,-32.57,-33.27,0,*6B
1487620960.57,7327,12.63,72854.3,-5.91,-32.57,-33.31,0,*6D
1487620961.81,7328,12.63,72850.3,-5.93,-32.69,-33.55,0,*6F
1487620963.07,7329,12.63,72842.5,-5.93,-32.69,-33.31,0,*6C
1487620964.34,7330,12.63,72836.3,-5.89,-32.85,-33.61,0,*68
1487620965.57,7331,12.63,72836.0,-5.91,-33.03,-33.89,0,*69
1487620966.8,7332,12.63,72840.0,-5.89,-33.03,-33.67,0,*63
1487620968.03,7333,12.63,72834.8,-5.91,-32.79,-33.55,0,*66
1487620969.23,7334,12.63,72828.8,-5.91,-32.91,-33.67,0,*66
1487620970.46,7335,12.63,72822.3,-5.91,-33.09,-33.83,0,*6D
1487620971.69,7336,12.63,72810.5,-5.91,-33.09,-33.83,0,*6E
1487620972.88,7337,12.63,72802.5,-5.91,-33.15,-33.83,0,*62
1487620974.11,7338,12.63,72818.5,-5.93,-33.21,-33.95,0,*6F
1487620975.37,7339,12.63,72836.3,-5.93,-33.21,-33.89,0,*63
1487620976.59,7340,12.63,72840.5,-5.93,-33.03,-33.83,0,*67
1487620977.82,7341,12.63,72836.0,-5.91,-32.91,-33.49,0,*68
1487620979.08,7342,12.63,72840.0,-5.93,-32.79,-33.21,0,*61
1487620980.33,7343,12.63,72840.8,-5.93,-32.35,-32.85,0,*67
1487620981.58,7344,12.63,72842.3,-5.93,-32.29,-32.69,0,*6F
1487620982.86,7345,12.63,72840.5,-5.93,-32.29,-32.63,0,*64
1487620984.12,7346,12.63,72848.8,-5.91,-32.07,-32.75,0,*6E
1487620985.35,7347,12.63,72848.3,-5.91,-32.39,-32.79,0,*6E
1487620986.61,7348,12.63,72848.0,-5.91,-32.63,-32.79,0,*6E
1487620987.87,7349,12.63,72854.8,-5.93,-32.69,-32.85,0,*64
1487620989.16,7350,12.63,72852.3,-5.93,-32.63,-32.79,0,*65
1487620990.45,7351,12.63,72850.8,-5.93,-32.79,-32.85,0,*6C
1487620991.7,7352,12.63,72838.0,-5.93,-32.79,-33.03,0,*60
1487620992.96,7353,12.63,72834.8,-5.93,-32.51,-32.97,0,*67
1487620994.19,7354,12.63,72832.0,-5.93,-32.51,-33.03,0,*6C
1487620995.42,7355,12.63,72832.3,-5.95,-32.45,-33.03,0,*6E
1487620996.65,7356,12.63,72826.0,-5.95,-32.63,-33.21,0,*69
1487620997.87,7357,12.63,72834.0,-5.95,-32.69,-33.37,0,*65
1487620999.1,7358,12.63,72844.0,-5.95,-32.63,-33.21,0,*67
1487621000.3,7359,12.63,72848.0,-5.95,-32.35,-33.15,0,*62
1487621001.52,7360,12.63,72848.0,-5.97,-32.63,-33.55,0,*6D
1487621002.74,7361,12.63,72848.5,-5.97,-32.63,-33.55,0,*6C
1487621003.93,7362,12.63,72858.5,-5.97,-32.51,-33.55,0,*6E
1487621005.14,7363,12.63,72854.5,-5.95,-32.69,-33.55,0,*66
1487621006.4,7364,12.63,72858.5,-5.95,-32.79,-33.73,0,*64
1487621007.62,7365,12.63,72844.8,-5.95,-32.69,-33.55,0,*60
1487621008.81,7366,12.63,72842.3,-5.97,-32.35,-33.03,0,*6B
1487621010.03,7367,12.63,72848.3,-5.97,-32.45,-33.21,0,*6D
1487621011.26,7368,12.63,72856.8,-5.97,-32.79,-33.37,0,*6A
1487621012.48,7369,12.63,72856.0,-5.97,-32.45,-32.69,0,*6E
1487621013.71,7370,12.63,72848.3,-5.97,-32.29,-32.69,0,*6C
1487621014.91,7371,12.63,72832.5,-5.97,-32.23,-32.69,0,*67
1487621016.11,7372,12.63,72842.8,-5.97,-32.23,-32.69,0,*64
1487621017.34,7373,12.63,72844.3,-5.95,-32.13,-32.45,0,*6A
1487621018.58,7374,12.63,72846.8,-5.95,-32.07,-32.51,0,*6D
1487621019.78,7375,12.63,72854.0,-5.97,-32.13,-32.69,0,*60
1487621021.04,7376,12.63,72856.5,-5.95,-32.45,-32.79,0,*63
1487621022.27,7377,12.63,72856.5,-5.95,-32.23,-32.63,0,*69
1487621023.52,7378,12.63,72852.8,-5.95,-32.29,-32.63,0,*6C
1487621024.77,7379,12.63,72852.5,-5.95,-32.29,-32.85,0,*65
1487621025.97,7380,12.63,72854.3,-5.97,-32.51,-33.03,0,*61
1487621027.19,7381,12.63,72852.0,-5.97,-32.45,-33.15,0,*62
1487621028.44,7382,12.63,72858.0,-5.97,-32.45,-33.31,0,*67
1487621029.65,7383,12.63,72862.0,-5.97,-32.69,-33.37,0,*6E
1487621030.9,7384,12.63,72862.8,-5.97,-32.63,-33.31,0,*65
1487621032.1,7385,12.63,72860.8,-5.97,-32.51,-33.21,0,*64
1487621033.32,7386,12.63,72858.8,-5.95,-32.35,-32.97,0,*6B
1487621034.55,7387,12.63,72852.3,-5.95,-32.45,-33.21,0,*61
1487621035.74,7388,12.63,72852.8,-5.97,-32.35,-33.03,0,*6B
1487621036.96,7389,12.63,72844.8,-5.97,-32.45,-33.03,0,*6D
1487621038.16,7390,12.63,72846.5,-5.97,-32.51,-33.03,0,*60
1487621039.42,7391,12.63,72830.8,-5.95,-32.79,-33.31,0,*68
1487621040.63,7392,12.63,72824.0,-5.97,-32.69,-33.21,0,*69
1487621041.89,7393,12.63,72818.0,-5.95,-32.79,-33.31,0,*6A
1487621043.15,7394,12.63,72824.0,-5.95,-32.79,-33.31,0,*6D
1487621044.39,7395,12.63,72814.5,-5.95,-32.69,-33.31,0,*6D
1487621045.6,7396,12.63,72828.5,-5.95,-32.69,-33.21,0,*6F
1487621046.81,7397,12.63,72838.3,-5.95,-32.51,-33.03,0,*65
1487621048.07,7398,12.63,72830.0,-5.95,-32.45,-32.79,0,*63
1487621049.32,7399,12.63,72838.0,-5.93,-32.23,-32.07,0,*6D
1487621050.52,7400,12.63,72838.5,-5.97,-32.23,-32.13,0,*6B
1487621051.73,7401,12.63,72856.8,-5.97,-32.29,-32.23,0,*63
1487621052.94,7402,12.63,72858.0,-5.95,-32.23,-32.35,0,*6F
1487621054.19,7403,12.63,72856.3,-5.95,-32.29,-32.63,0,*67
1487621055.42,7404,12.63,72858.0,-5.95,-32.23,-32.63,0,*6A
1487621056.65,7405,12.63,72850.0,-5.95,-32.29,-32.51,0,*60
1487621057.87,7406,12.63,72844.3,-5.97,-32.29,-32.69,0,*6A
1487621059.1,7407,12.63,72842.5,-5.95,-32.29,-32.51,0,*62
1487621060.33,7408,12.63,72840.8,-5.95,-32.23,-32.45,0,*62
1487621061.59,7409,12.63,72846.0,-5.95,-32.07,-32.29,0,*6F
1487621062.8,7410,12.63,72846.5,-5.95,-32.13,-32.35,0,*6F
1487621063.99,7411,12.63,72838.3,-5.97,-32.23,-32.35,0,*6F
1487621065.27,7412,12.63,72840.0,-5.93,-31.91,-32.29,0,*6F
1487621066.49,7413,12.63,72838.3,-5.97,-31.79,-32.45,0,*66
1487621067.74,7414,12.63,72842.5,-5.97,-31.95,-32.63,0,*67
1487621069.0,7415,12.63,72844.8,-5.97,-32.07,-32.85,0,*66
1487621070.22,7416,12.63,72846.5,-5.97,-32.29,-33.21,0,*66
1487621071.44,7417,12.63,72844.0,-5.97,-32.45,-33.37,0,*6A
1487621072.64,7418,12.63,72840.8,-5.97,-32.51,-33.55,0,*64
1487621073.87,7419,12.63,72838.0,-5.95,-32.63,-33.37,0,*62
1487621075.1,7420,12.63,72840.3,-5.97,-32.79,-33.37,0,*61
1487621076.33,7421,12.63,72836.3,-5.97,-32.79,-33.37,0,*60
1487621077.54,7422,12.63,72840.3,-5.97,-32.69,-33.21,0,*65
1487621078.77,7423,12.63,72838.3,-5.99,-32.69,-33.21,0,*6A
1487621080.02,7424,12.63,72836.3,-5.99,-32.69,-33.09,0,*67
1487621081.3,7425,12.63,72842.8,-5.99,-32.75,-33.09,0,*6B
1487621082.54,7426,12.63,72836.0,-5.99,-32.85,-33.21,0,*6D
1487621083.76,7427,12.63,72838.8,-5.99,-32.91,-33.15,0,*6E
1487621084.97,7428,12.63,72838.0,-5.97,-32.69,-33.15,0,*68
1487621086.2,7429,12.63,72836.5,-6.01,-32.69,-33.27,0,*64
1487621087.46,7430,12.63,72836.5,-5.99,-32.69,-33.27,0,*6E
1487621088.67,7431,12.63,72848.5,-6.01,-32.69,-33.37,0,*6C
1487621089.89,7432,12.63,72846.3,-6.01,-32.39,-33.27,0,*6B
1487621091.09,7433,12.63,72840.3,-6.01,-32.39,-33.03,0,*6C
1487621092.32,7434,12.63,72836.8,-5.99,-32.51,-33.03,0,*67
1487621093.52,7435,12.63,72832.5,-6.01,-32.57,-33.03,0,*62
1487621094.74,7436,12.63,72818.0,-5.99,-32.39,-32.91,0,*61
1487621095.96,7437,12.63,72818.5,-5.99,-32.39,-32.91,0,*60
1487621097.19,7438,12.63,72816.3,-5.99,-32.57,-33.03,0,*6D
1487621098.41,7439,12.63,72822.0,-5.99,-32.57,-33.03,0,*6C
1487621099.66,7440,12.63,72824.3,-5.99,-32.57,-33.09,0,*68
1487621100.91,7441,12.63,72816.0,-5.99,-32.29,-32.69,0,*67
1487621102.16,7442,12.63,72818.5,-5.99,-32.35,-32.75,0,*64
1487621103.38,7443,12.63,72814.8,-5.99,-32.13,-32.51,0,*67
1487621104.61,7444,12.63,72820.8,-5.95,-32.13,-32.63,0,*6D
1487621105.86,7445,12.63,72818.0,-5.97,-32.29,-32.79,0,*6C
1487621107.11,7446,12.63,72816.8,-5.97,-32.45,-32.85,0,*66
1487621108.36,7447,12.63,72818.5,-5.97,-32.45,-32.79,0,*64
1487621109.62,7448,12.63,72824.3,-5.95,-32.45,-32.79,0,*69
1487621110.88,7449,12.63,72828.5,-5.95,-32.45,-32.85,0,*6B
1487621112.14,7450,12.63,72836.5,-5.95,-32.45,-32.85,0,*63
1487621113.39,7451,12.63,72830.0,-5.95,-32.29,-32.85,0,*68
1487621114.65,7452,12.63,72828.8,-5.95,-32.29,-32.63,0,*63
1487621115.9,7453,12.63,72832.8,-5.95,-32.45,-32.97,0,*63
1487621117.15,7454,12.63,72830.3,-5.93,-32.63,-33.15,0,*6D
1487621118.39,7455,12.63,72832.0,-5.93,-32.69,-33.15,0,*66
1487621119.62,7456,12.63,72824.0,-5.93,-32.69,-33.03,0,*62
1487621120.91,7457,12.63,72834.0,-5.93,-32.45,-32.85,0,*62
1487621122.12,7458,12.63,72828.8,-5.95,-32.23,-32.51,0,*62
1487621123.37,7459,12.63,72826.5,-5.91,-32.07,-32.29,0,*6E
1487621124.61,7460,12.63,72826.3,-5.93,-32.13,-32.51,0,*6C
1487621125.86,7461,12.69,72832.0,-5.91,-32.19,-32.45,0,*60
1487621127.09,7462,12.63,72824.3,-5.93,-32.13,-32.35,0,*6C
1487621128.34,7463,12.63,72832.0,-5.93,-32.23,-32.63,0,*6D
1487621129.6,7464,12.63,72832.8,-5.91,-32.19,-32.45,0,*65
1487621130.83,7465,12.69,72834.3,-5.91,-32.07,-32.39,0,*60
1487621132.06,7466,12.63,72830.8,-5.91,-32.23,-32.45,0,*6E
1487621133.31,7467,12.63,72828.3,-5.89,-32.19,-32.69,0,*61
1487621134.53,7468,12.63,72826.0,-5.89,-32.23,-32.57,0,*6A
1487621135.76,7469,12.63,72830.0,-5.89,-32.39,-32.69,0,*6D
1487621137.02,7470,12.63,72828.5,-5.89,-32.51,-32.85,0,*69
1487621138.25,7471,12.69,72832.3,-5.89,-32.69,-33.03,0,*6C
1487621139.51,7472,12.63,72826.0,-5.89,-32.69,-33.09,0,*65
1487621140.74,7473,12.63,72824.8,-5.89,-32.69,-33.03,0,*6E
1487621142.0,7474,12.63,72812.3,-5.89,-32.75,-33.03,0,*64
1487621143.2,7475,12.69,72806.8,-5.87,-32.51,-32.35,0,*69
1487621144.46,7476,12.69,72804.3,-5.89,-31.11,-32.23,0,*64
1487621145.69,7477,12.63,72802.8,-5.89,-32.01,-32.69,0,*69
1487621146.94,7478,12.63,72814.0,-5.89,-31.85,-32.57,0,*64
1487621148.21,7479,12.63,72814.5,-5.91,-32.19,-32.75,0,*6A
1487621149.49,7480,12.69,72826.8,-5.89,-32.19,-32.75,0,*65
1487621150.74,7481,12.63,72828.0,-5.89,-32.35,-32.85,0,*65
1487621151.94,7482,12.63,72824.0,-5.91,-32.57,-32.91,0,*6E
1487621153.18,7483,12.63,72832.5,-5.91,-32.79,-33.15,0,*6E
1487621154.43,7484,12.63,72826.8,-5.89,-32.85,-33.21,0,*64
1487621155.69,7485,12.63,72828.8,-5.91,-32.79,-33.27,0,*69
1487621156.92,7486,12.63,72838.5,-5.91,-32.91,-33.27,0,*6C
1487621158.15,7487,12.63,72828.5,-5.91,-32.91,-33.09,0,*61
1487621159.4,7488,12.63,72836.0,-5.91,-32.97,-33.27,0,*64
1487621160.66,7489,12.69,72832.8,-5.93,-32.85,-33.03,0,*62
1487621161.92,7490,12.63,72818.8,-5.91,-32.63,-32.79,0,*6C
1487621163.17,7491,12.63,72812.8,-5.89,-32.51,-32.75,0,*69
1487621164.4,7492,12.63,72824.5,-5.91,-32.63,-32.91,0,*68
1487621165.66,7493,12.63,72824.8,-5.93,-32.79,-33.15,0,*6D
1487621166.89,7494,12.63,72824.3,-5.91,-32.91,-33.27,0,*6F
1487621168.15,7495,12.63,72826.8,-5.91,-33.09,-33.49,0,*66
1487621169.35,7496,12.63,72820.5,-5.91,-33.15,-33.37,0,*61
1487621170.6,7497,12.63,72810.5,-5.91,-32.63,-32.97,0,*6B
1487621171.86,7498,12.63,72814.5,-5.91,-32.75,-33.09,0,*65
1487621173.14,7499,12.63,72826.0,-5.93,-32.63,-32.85,0,*64
1487621174.42,7500,12.63,72820.8,-5.93,-32.63,-32.97,0,*66
1487621175.67,7501,12.63,72830.3,-5.91,-32.45,-33.09,0,*67
1487621176.93,7502,12.63,72824.0,-5.93,-32.79,-33.21,0,*63
1487621178.17,7503,12.63,72822.3,-5.93,-32.69,-33.21,0,*63
1487621179.45,7504,12.63,72828.0,-5.93,-32.85,-33.31,0,*67
1487621180.71,7505,12.63,72826.8,-5.93,-32.79,-33.21,0,*64
1487621181.99,7506,12.63,72816.8,-5.93,-32.97,-33.31,0,*66
1487621183.27,7507,12.63,72816.3,-5.93,-32.97,-33.31,0,*67
1487621184.52,7508,12.63,72816.8,-5.93,-32.79,-33.21,0,*69
1487621185.78,7509,12.63,72814.8,-5.93,-32.97,-33.21,0,*68
1487621187.03,7510,12.63,72804.0,-5.93,-32.85,-33.21,0,*63
1487621188.27,7511,12.63,72808.0,-5.95,-32.85,-33.15,0,*63
1487621189.5,7512,12.63,72820.3,-5.95,-32.35,-32.79,0,*60
1487621190.75,7513,12.63,72818.5,-5.95,-32.45,-32.85,0,*65
1487621192.03,7514,12.63,72818.5,-5.93,-32.45,-32.97,0,*67
1487621193.31,7515,12.63,72822.5,-5.93,-32.45,-32.97,0,*66
1487621194.51,7516,12.63,72824.3,-5.95,-32.51,-33.15,0,*6D
1487621195.71,7517,12.63,72826.5,-5.97,-32.51,-33.03,0,*69
1487621196.91,7518,12.63,72820.8,-5.97,-32.69,-33.03,0,*6D
1487621198.15,7519,12.63,72832.0,-5.95,-32.69,-32.97,0,*62
1487621199.4,7520,12.63,72832.8,-5.97,-32.45,-32.79,0,*64
1487621200.64,7521,12.63,72834.3,-5.97,-32.29,-32.63,0,*64
1487621201.89,7522,12.63,72834.8,-5.95,-32.29,-32.63,0,*65
1487621203.13,7523,12.63,72828.0,-5.95,-32.45,-32.69,0,*64
1487621204.36,7524,12.63,72820.0,-5.95,-32.51,-32.85,0,*64
1487621205.63,7525,12.63,72810.5,-5.95,-32.79,-32.85,0,*6F
1487621206.89,7526,12.63,72808.5,-5.93,-32.75,-32.91,0,*63
1487621208.18,7527,12.63,72824.5,-5.93,-32.79,-32.85,0,*6B
1487621209.43,7528,12.63,72828.5,-5.93,-32.79,-33.15,0,*6C
1487621210.67,7529,12.63,72820.8,-5.93,-32.69,-33.03,0,*6B
1487621211.93,7530,12.69,72814.8,-5.93,-32.85,-33.21,0,*61
1487621213.18,7531,12.63,72818.8,-5.95,-32.97,-33.31,0,*64
1487621214.4,7532,12.63,72820.5,-5.97,-32.97,-33.15,0,*63
1487621215.64,7533,12.69,72820.0,-5.95,-32.85,-33.15,0,*63
1487621216.87,7534,12.63,72814.0,-5.95,-32.85,-33.03,0,*63
1487621218.09,7535,12.63,72810.5,-5.97,-32.97,-33.15,0,*64
1487621219.31,7536,12.63,72806.5,-5.97,-32.97,-33.21,0,*60
1487621220.54,7537,12.63,72808.8,-5.95,-32.97,-33.21,0,*63
1487621221.76,7538,12.63,72822.3,-5.97,-32.97,-33.21,0,*6E
1487621223.01,7539,12.63,72820.3,-5.97,-32.97,-33.31,0,*6E
1487621224.23,7540,12.63,72816.3,-5.97,-32.85,-33.03,0,*62
1487621225.44,7541,12.63,72814.8,-6.01,-33.03,-33.37,0,*67
1487621226.66,7542,12.63,72814.8,-6.01,-33.09,-33.37,0,*6E
1487621227.91,7543,12.63,72814.5,-5.99,-33.03,-33.27,0,*66
1487621229.13,7544,12.63,72806.0,-5.97,-32.97,-33.15,0,*62
1487621230.36,7545,12.63,72810.0,-5.97,-32.85,-33.15,0,*60
1487621231.64,7546,12.63,72818.5,-5.99,-32.75,-33.09,0,*6F
1487621232.89,7547,12.63,72826.0,-5.99,-32.75,-33.03,0,*64
1487621234.17,7548,12.63,72832.0,-5.99,-32.75,-32.85,0,*64
1487621235.39,7549,12.63,72824.8,-5.99,-32.57,-32.39,0,*62
1487621236.66,7550,12.63,72828.0,-5.99,-32.29,-32.29,0,*62
1487621237.88,7551,12.63,72820.0,-5.99,-32.35,-32.69,0,*6A
1487621239.11,7552,12.63,72818.3,-6.01,-32.51,-32.85,0,*6B
1487621240.34,7553,12.63,72822.5,-6.01,-32.57,-32.75,0,*63
1487621241.56,7554,12.63,72828.0,-5.99,-32.57,-33.03,0,*66
1487621242.76,7555,12.63,72828.0,-6.01,-32.51,-32.91,0,*69
1487621243.99,7556,12.63,72824.5,-5.99,-32.57,-32.91,0,*6E
1487621245.2,7557,12.63,72820.0,-6.01,-32.69,-32.91,0,*60
1487621246.42,7558,12.69,72826.3,-5.99,-32.57,-32.91,0,*60
1487621247.63,7559,12.63,72826.5,-6.01,-32.69,-32.91,0,*6E
1487621248.83,7560,12.63,72824.3,-6.01,-32.69,-32.91,0,*64
1487621250.11,7561,12.63,72826.3,-5.99,-32.75,-33.09,0,*6A
1487621251.36,7562,12.63,72822.5,-5.99,-32.91,-33.09,0,*63
1487621252.55,7563,12.63,72824.0,-6.01,-32.91,-33.21,0,*6A
1487621253.78,7564,12.63,72826.3,-6.01,-33.03,-33.09,0,*6D
1487621255.0,7565,12.63,72822.8,-6.01,-32.91,-33.09,0,*66
1487621256.19,7566,12.63,72824.8,-6.01,-32.91,-32.91,0,*65
1487621257.42,7567,12.63,72824.8,-6.01,-32.75,-32.91,0,*6E
1487621258.67,7568,12.63,72816.8,-6.05,-32.97,-33.09,0,*69
1487621259.9,7569,12.63,72808.5,-6.05,-32.63,-32.91,0,*63
1487621261.16,7570,12.63,72812.3,-6.05,-32.75,-32.79,0,*6A
1487621262.41,7571,12.63,72812.5,-6.05,-32.45,-32.45,0,*67
1487621263.65,7572,12.63,72820.0,-6.07,-32.51,-32.51,0,*66
1487621264.88,7573,12.63,72816.3,-6.05,-32.39,-32.19,0,*67
1487621266.07,7574,12.69,72826.5,-6.05,-32.23,-32.35,0,*65
1487621267.31,7575,12.63,72816.3,-6.07,-32.39,-32.69,0,*64
1487621268.58,7576,12.69,72816.3,-6.07,-32.45,-32.97,0,*6D
1487621269.85,7577,12.63,72810.0,-6.07,-32.45,-32.97,0,*6C
1487621271.08,7578,12.63,72812.3,-6.05,-32.39,-32.97,0,*6A
1487621272.31,7579,12.63,72810.3,-6.07,-32.51,-33.03,0,*6B
1487621273.54,7580,12.63,72810.5,-6.07,-32.69,-33.03,0,*66
1487621274.77,7581,12.63,72812.5,-6.07,-32.69,-33.15,0,*60
1487621275.98,7582,12.69,72822.3,-6.05,-32.57,-32.91,0,*61
1487621277.24,7583,12.63,72824.3,-6.07,-32.69,-32.97,0,*69
1487621278.47,7584,12.63,72824.3,-6.07,-32.69,-33.03,0,*62
1487621279.72,7585,12.63,72828.5,-6.07,-32.97,-33.21,0,*62
1487621280.95,7586,12.63,72820.0,-6.07,-33.03,-33.15,0,*6A
1487621282.18,7587,12.63,72822.3,-6.09,-32.69,-32.97,0,*63
1487621283.41,7588,12.63,72822.8,-6.11,-32.69,-33.03,0,*69
1487621284.65,7589,12.63,72824.8,-6.09,-32.79,-33.15,0,*67
1487621285.87,7590,12.63,72824.8,-6.09,-32.63,-33.03,0,*63
1487621287.12,7591,12.63,72826.5,-6.09,-32.63,-32.97,0,*6E
1487621288.35,7592,12.63,72828.0,-6.07,-32.69,-33.03,0,*65
1487621289.59,7593,12.63,72824.3,-6.09,-32.79,-33.03,0,*6B
1487621290.82,7594,12.63,72824.3,-6.09,-32.79,-33.03,0,*6C
1487621292.05,7595,12.63,72820.3,-6.09,-32.57,-32.75,0,*61
1487621293.3,7596,12.63,72814.0,-6.09,-32.45,-32.79,0,*6D
1487621294.56,7597,12.63,72824.3,-6.09,-32.63,-32.85,0,*6B
1487621295.77,7598,12.63,72834.0,-6.09,-32.51,-32.69,0,*67
1487621297.0,7599,12.63,72832.3,-6.09,-32.51,-32.79,0,*67
1487621298.28,7600,12.63,72822.3,-6.07,-32.63,-32.85,0,*68
1487621299.54,7601,12.63,72816.8,-6.09,-32.63,-32.85,0,*67
1487621300.79,7602,12.63,72824.8,-6.09,-32.63,-32.79,0,*67
1487621302.05,7603,12.63,72828.3,-6.09,-32.79,-32.85,0,*6E
1487621303.31,7604,12.63,72824.5,-6.09,-32.63,-32.79,0,*61